128  
ASUS41 KOKX 231905  
RWROKX  
 
REGIONAL WEATHER ROUNDUP  
NATIONAL WEATHER SERVICE NEW YORK NY  
300 PM EDT SAT AUG 23 2014  
 
NOTE: "FAIR" INDICATES FEW OR NO CLOUDS BELOW 12,000 FEET WITH NO  
SIGNIFICANT WEATHER AND/OR S TO VISIBILITY
.  
 
NYZ071-072-176-178-NJZ106-104-232000-  
NEW YORK CITY METRO AREA  
 
 
CITY SKY/WX TMP DP RH WIND PRES REMARKS
 
CENTRAL PARK PTSUNNY 76 55 48 NE7 30.11F  
LAGUARDIA APRT PTSUNNY 73 58 59 NE13 30.08F  
KENNEDY INTL CLOUDY 72 59 63 SE13 30.09S  
NEWARK/LIBERTY PTSUNNY 72 62 71 VRB5 30.08S  
BRNX BOT. GARD N/A 73 55 53 NE1 30.09F  
TETERBORO PTSUNNY 76 54 46 E9 30.08S  

 
 
NYZ177-179-078>081-232000-  
LONG ISLAND NEW YORK  
 
CITY SKY/WX TMP DP RH WIND PRES REMARKS
 
FARMINGDALE CLOUDY 71 60 68 SE10 30.09S  
ISLIP PTSUNNY 72 59 63 E7 30.07S  
SHIRLEY PTSUNNY 74 58 57 VRB6 30.09F  
WESTHAMPTON CLOUDY 74 60 61 VRB7 30.10F  
MONTAUK POINT N/A 72 60 66 NE8 30.10S  

 
 
NYZ052-065-067-232000-  
HUDSON VALLEY  
 
CITY SKY/WX TMP DP RH WIND PRES REMARKS
 
WHITE PLAINS PTSUNNY 73 57 57 SE9 30.09F  
NEWBURGH PTSUNNY 73 61 64 E12 30.12S  
MONTGOMERY PTSUNNY 74 58 57 NE9 30.10F  
POUGHKEEPSIE MOSUNNY 75 58 55 SE5 30.09F  
ALBANY PTSUNNY 74 59 59 N7 30.12S  

 
 
NJZ001-105-106-008-010-013-015-019>022-104-232000-  
NEW JERSEY  
 
CITY SKY/WX TMP DP RH WIND PRES REMARKS
 
NEWARK/LIBERTY PTSUNNY 72 62 71 VRB5 30.08S  
TETERBORO PTSUNNY 76 54 46 E9 30.08S  
CALDWELL PTSUNNY 75 57 53 E7 30.09F  
MORRISTOWN PTSUNNY 73 59 60 E8 30.09F  
SOMERVILLE N/A 69 64 84 CALM 30.08S  
LINDEN CLOUDY 74 66 76 S7 30.11R  
SUSSEX CLOUDY 73 60 63 E3 30.10F  
ANDOVER N/A 69 60 73 CALM 30.11S  
TRENTON CLOUDY 72 62 71 E12 30.08S  
MILLVILLE CLOUDY 73 62 68 E10 30.06R  
ATLANTIC CITY PTSUNNY 72 63 73 E13 30.06F  
WRIGHTSTOWN LGT RAIN 68 65 88 E5 30.06S  
TOMS RIVER CLOUDY 72 63 73 E8 30.08F  
BELMAR CLOUDY 70 59 68 E12 30.09S  

 
 
PAZ047>061-062-071-232000-  
EASTERN PENNSYLVANIA  
 
CITY SKY/WX TMP DP RH WIND PRES REMARKS
 
PHILADELPHIA LGT RAIN 69 66 90 SE9 30.08S FOG  
ALLENTOWN CLOUDY 69 61 75 E8 30.10S  
SCRANTON CLOUDY 67 61 81 W5 30.12R  

 
 
CTZ002-004>006-009-010-012-RIZ004-006-007-MAZ004-011-015-232000-  
SOUTHERN NEW ENGLAND  
IN CT  
 
CITY SKY/WX TMP DP RH WIND PRES REMARKS
 
BRADLEY INTL CLOUDY 74 55 51 NE7 30.10R  
HARTFORD CLOUDY 73 54 51 NE7 30.10R  
DANBURY PTSUNNY 74 57 55 NE6 30.11S  
WTRBRY/OXFORD NOT AVBL  
BRIDGEPORT PTSUNNY 72 60 66 E6 30.09F  
MERIDEN CLOUDY 74 56 53 N5 30.09F  
NEW HAVEN CLOUDY 73 61 65 S6 30.09S  
CHESTER MOCLDY 72 57 60 NE6 30.11S  
GROTON CLOUDY 73 58 59 NE10 30.09R  
WILLIMANTIC CLOUDY 73 56 54 E6 30.11R  
 
IN RI  
 
CITY SKY/WX TMP DP RH WIND PRES REMARKS
 
PROVIDENCE PTSUNNY 74 55 51 NE13G18 30.10S  
BLOCK ISLAND CLOUDY 72 61 68 E8 30.09S  
WESTERLY CLOUDY 73 56 54 NE7 30.10S  
 
IN MA  
 
CITY SKY/WX TMP DP RH WIND PRES REMARKS
 
BOSTON MOSUNNY 70 60 70 E15 30.12S  
WORCESTER CLOUDY 68 55 63 NE6 30.13F  
WESTFIELD CLOUDY 74 56 53 NE6 30.11S  
PROVINCETOWN SUNNY 70 61 73 MISG 30.11S  
NANTUCKET MOSUNNY 71 60 68 NE18G25 30.07S  

 
 
ANZ330-335-338-340-345-350-353-355-232000-  
COASTAL MARINE OBSERVATIONS  
 
 
STATION/POSITION TIME SKY/WX TEMP WIND PRES VSBY WAVE
 
AIR SEA DIR/SP/G HT/PER  
(UTC) (F) (DEG/KT/KT) (MB) (MI) (FT/S)  
NY HARB ENTRANCE NOT AVBL  
4S FIRE IS NOT AVBL  
23SW MTP 1900 69 70 1018.3 5/ 6  
HUDSON CANYON 1900 70 73 50/ 17/ 21 1017.3 6/ 7  
EXECUTION ROCKS 1900 72 73 60/ 12/ 16 N/A  
WESTERN LI SOUND 1900 71 80/ 12/ 14 N/A 1/ 4  
CENTRAL LI SOUND 1800 70 73 180/ 2/ 4 N/A 1  
EASTERN LI SOUND 1800 70 68 60/ 8/ 10 N/A  
ROBBINS REEF 1900 70 150/ 9/ 11 N/A  

 
 
>>>>>>>>>>>>>>>>>>>>>>>>>>>> KEY <<<<<<<<<<<<<<<<<<<<<<<<<<<  
> <  
> SKY/WX - SKY CONDITION/PRESENT WEATHER <  
> TMP - TEMPERATURE IN FAHRENHEIT <  
> DP - DEWPOINT IN FAHRENHEIT <  
> RH - RELATIVE HUMIDITY IN PERCENT <  
> WIND - DIRECTION AND SPEED IN MPH <  
> PRES - MEAN SEA LEVEL PRESSURE IN INCHES OF HG <  
> WCI - WIND CHILL INDEX <  
> VSB - VISIBILITY IN MILES <  
> HX - HEAT INDEX <  
> TC - TEMPERATURE IN CELSIUS <  
> VRB - VARIABLE WIND DIRECTION <  
> <  
>>>>>>>>>>>>>>>>>>>>>>>>>>>> KEY <<<<<<<<<<<<<<<<<<<<<<<<<<<  
 
CLICK HERE TO GO TO PREVIOUS BULLETINS.

The Nexlab NY Page
The Nexlab NJ Page
The Nexlab CT Page Main Text Page